Location: Conflandey
(47.7287°N, 6.0456°E)
Time: 03:38:17
(UTC+00:00)

BREEZE-M R/B - Pass Details

Date: 24 October 2021
Orbit: 594 x 26573 km, 48.9° (Epoch: 28 November)

Event Time Altitude Azimuth Distance (km) Brightness Sun altitude
Rises 18:06:42 0° 284° (WNW) 3,116 7.7 -16.7°
Reaches altitude 10° 18:08:54 10° 283° (WNW) 1,969 6.4 -17.1°
Maximum altitude 18:12:23 80° 197° (SSW) 649 2.6 -17.7°
Enters shadow 18:14:24 30° 113° (ESE) 1,317 3.7 -18.0°
